Weather in Nizhnekamenka

Russia / Altai Krai     52°02′35″N   85°22′35″E
temp.,
°C
wind,
m/s
gust,
m/s
humid.,
%
clouds,
%
prec.,
mm/h
press.,
hPa
HPBL,
m
27 february, sat
sat2701:00−23ese1199100 0.6 104120
04:00−25se2294100 0.0 104120
07:00−24sse1285100 0.0 104120
10:00−21se1179100 0.0 103961
13:00−18nne1173100 0.0 1037248
16:00−18n228299 0.0 1037289
19:00−23ese009799 0.0 103820
22:00−23s228978 0.0 104020
28 february, sun
sun2801:00−24s228539 0.0 104020
04:00−23sse22810 0.0 104020
07:00−23sse23760 0.0 104120
10:00−19sse238018 0.0 103859
13:00−11e237149 0.0 1034302
16:00−9nne1283100 0.0 103195
19:00−11e1187100 0.0 102921
22:00−9sse2382100 0.0 102839
1 march, mon
mon101:00−8sse2380100 0.0 102538
04:00−8sse3383100 0.0 102361
07:00−7sse2284100 0.1 102041
10:00−5se2383100 0.0 1018104
13:00−1nne1193100 0.1 101671
16:00−1nne2294100 0.1 101585
19:00−2ese1294100 0.3 101524
22:00−2s3984100 0.3 1015380
2 march, tue
tue201:00−1ssw51671100 0.4 1015632
04:00−3sw257787 0.0 1016104
07:00−7ssw337692 0.0 101826
10:00−6s237975 0.0 101936
13:00−1nw257769 0.0 1019631
16:00−2ne1196100 0.7 1018191
19:00−4ese1197100 0.9 101721
22:00−4se1197100 0.7 101621
3 march, wed
wed301:00−4sse2295100 1.1 101443
04:00−3s2289100 0.4 101248
07:00−4ssw3382100 0.4 101357
10:00−3wsw2990100 0.1 1014615
13:00−4wnw71087100 0.4 1016846
16:00−8nw5992100 0.1 1018561
19:00−12nw2596100 0.5 1022201
22:00−15wsw0197100 0.4 102520